Flag for Austria Weather past 2 weeks in Mürzzuschlag, Styria, Austria

Now
61 °F

Fog.


Feels Like: 61 °F
Forecast: 45 / 50 °F
Wind: No wind

Location: Eisenstadt

Current Time: Aug 31, 2014 at 4:56:03 AM

Latest Report: Aug 31, 2014 at 4:00 AM


Visibility: N/A

Pressure: 30.01 "Hg

Humidity: 97%

Dew point: 60 °F

Location of MürzzuschlagLocation

Historic Weather in Mürzzuschlag — Graph

°F

Mürzzuschlag temperature yesterday

Maximum temperature yesterday: 68 °F (at 12:00 PM)
Minimum temperature yesterday: 58 °F (at 3:00 AM)
Average temperature yesterday: 62 °F

Past Weeks' High & Low Weather Summary

 TemperatureHumidityPressure
High78 °F (Aug 18, 3:00 PM)96% (Aug 30, 11:00 PM)30.13 "Hg (Aug 30, 11:00 PM)
Low49 °F (Aug 25, 5:00 AM)40% (Aug 28, 3:00 PM)29.72 "Hg (Aug 27, 4:00 AM)
Average62 °F74%29.97 "Hg
* Reported Aug 16 3:00 AM — Aug 31 3:00 AM, Mürzzuschlag, Weather by CustomWeather, © 2014

Note: Actual official high and low records may vary slightly from our data, if they occured in-between our weather recording intervals... More about our weather records

Advertising

Mürzzuschlag weather history for previous 24 hours

 ConditionsComfort  
Time TempWeatherWind HumidityBarometerVisibility
3:00 AM
Aug 31
61 °FFog.1 mph96%30.03 "HgN/A
2:00 AM61 °FOvercast.1 mph96%30.04 "Hg12 mi
1:00 AM60 °FCool.1 mph96%30.06 "HgN/A
12:00 AM61 °FCool.2 mph95%30.06 "HgN/A
11:00 PM
Aug 30
61 °FOvercast.1 mph96%30.06 "Hg6 mi
10:00 PM62 °FCool.1 mph95%30.06 "HgN/A
9:00 PM62 °FCool.2 mph95%30.05 "HgN/A
8:00 PM63 °FOvercast.No wind95%30.04 "Hg6 mi
7:00 PM64 °FOvercast.1 mph92%30.04 "Hg6 mi
6:00 PM64 °FFog.No wind93%30.06 "HgN/A
5:00 PM65 °FLight rain. Overcast.2 mph92%30.06 "Hg6 mi
4:00 PM65 °FMild.1 mph87%30.07 "HgN/A
3:00 PM65 °FFog.1 mph91%30.08 "HgN/A
2:00 PM64 °FFog.2 mph90%30.09 "Hg9 mi
1:00 PM66 °FMild.1 mph79%30.08 "HgN/A
12:00 PM68 °FMild.6 mph76%30.08 "HgN/A
11:00 AM67 °FOvercast.3 mph75%30.08 "Hg9 mi
10:00 AM65 °FMild.1 mph81%30.07 "HgN/A
9:00 AM64 °FMild.No wind83%30.06 "HgN/A
8:00 AM61 °FOvercast.1 mph87%30.06 "Hg9 mi
7:00 AM60 °FOvercast.1 mph90%30.04 "Hg9 mi
6:00 AM60 °FPassing clouds.2 mph90%30.04 "Hg9 mi
5:00 AM59 °FClear.1 mph91%30.04 "Hg9 mi
4:00 AM59 °FClear.2 mph91%30.04 "Hg9 mi
Weather by CustomWeather, © 2014

See weather overviewHow to use our weather pages